User: anonymous   Login
Location: Caltech
(34.1382°N, 118.1253°W)
Time: 02:31:38
(UTC-07:00)
Language:

Cosmos 44 Rocket - Orbit

View from above orbital plane
View from above orbital plane
View from above satellite
View from above satellite

Ground track
Ground track

The orbit data is extracted from the following two-line orbital elements,

1   877U 64053B   18172.83766001 -.00000079 +00000-0 +90241-5 0  9998
2   877 065.0785 292.2845 0077489 315.0349 044.4491 14.59334558855468
Epoch (UTC): 21 June 2018 20:06:13
Eccentricity: 0.0077489
inclination: 65.0785°
perigee height: 640 km
apogee height: 750 km
right ascension of ascending node: 292.2845°
argument of perigee: 315.0349°
revolutions per day: 14.59334558
mean anomaly at epoch: 44.4491°
orbit number at epoch: 85546

The dashed part of the orbit path shows where the satellite is in the earth's shadow,  

DLR